zondag 18 februari 2018 | Home | Bestenlijsten | Nieuws | Uitslagen | Videos | Wedstrijden | VZA Ranglijsten | Weer |
 
 
Recent nieuws meer nieuws
04-02: Erwin Harmes oppermachtig in Halve Marathon van Cadzand
22-01: Erwin Harmes is ook in 46e Deltacross ongrijpbaar
22-01: 7e Kapelse bosloop/cross in nieuw jasje
21-01: Erwin Harmes voegt na serie missers alsnog Goese Wallenloop aan zegelijst toe
31-12: Erwin Harmes en Marlies Kort domineren Tankloop
30-12: Yunis Stitan verrassende winnaar van 47e Kerstloop
Wedstrijdagenda meer wedstrijden
zo 18-02: 7e Kapellecross Kapelle-Biezelinge
za 24-02: Halve van Axel
zo 25-02: 3e Natuurloop Cadzand
za 03-03: Scheldesportloop Terneuzen
za 03-03: 29e Kustcross Vlissingen
za 10-03: 46e Pannekoekloop Westenschouwen
za 10-03: Corn Boys Loop Sas van Gent
za 10-03: Krokusloop Hulst
zo 11-03: 44e CPC Loop Den Haag
zo 11-03: 4e Natuurloop Cadzand-Bad
za 17-03: 51e Massaloop Oostkapelle
zo 18-03: 4e Stevensloop Nijmegen
zo 18-03: 25e Zwinstedenloop Sluis
zo 18-03: 30e Parelloop Brunssum
za 24-03: 2e Dow trimloop Terneuzen
za 24-03: 7e Ronde van BRU Bruinisse
zo 25-03: 13e Venloop
Recente uitslagen meer uitslagen
za 17-02: 13e Zwaarste 10 van Zeeland Westenschouwen
za 10-02: Erpelkappersloop Axel
za 10-02: 24e Grevelingen cross Bruinisse
zo 04-02: 27e Midwinter Halve Marathon Cadzand (374)
za 03-02: 20e Rammekensloop Ritthem (297)
za 27-01: 4e Scheldesport cross Westdorpe (72)
za 27-01: Eugene Vink Memorial Westdorpe (128)
za 20-01: 1e Dow trimloop Terneuzen (111)
za 13-01: 46e Deltacross Westenschouwen (247)
za 13-01: 20e Steense Rattenloop Sint Jansteen (123)
zo 07-01: Scheidsrechtersloop Vlissingen (98)
za 06-01: 57e Wallenloop Goes (134)
za 06-01: Jeff Thuy Memorial Heikant (211)
vr 05-01: Ondoloop Sint Laurens (56)
 
Zoek tenminste met 3 tekens van wedstrijd, datum, plaats of atleet
21e Grevelingen cross
Bruinisse, zaterdag 14 februari 2015 - Organisatie: Flakkee
8 km
PltsNaam
Tijdkm/umin/km
1  Martijn de KokDynamica26.36Mse   18.045  3:20
2  Tommy StaalAV'5626.44Mse   17.955  3:21
3  Tim van den BroekeDynamica27.33Mse   17.423  3:27
4  Maikel PeemanFlakkee27.52Mse   17.225  3:29
5  Ricardo Sint-NicolaasFlakkee28.05Mse   17.092  3:31
6  David SchrierDynamica28.16Mse   16.981  3:32
7  Eric WolfertFlakkee28.30Mse   16.842  3:34
8  Maarten HarthoornKapelle-Biezelinge28.57M35   16.580  3:37
9  Jack HopmansSpado29.07M45   16.485  3:38
10  Luuk BalkenendeAV'5629.15Mse   16.410  3:39
11  Arjo VerhageDynamica29.26M45   16.308  3:41
12  Michiel LelieRKHAV29.29JoA   16.280  3:41
13  Erik CapponWielingen29.41M45   16.171  3:43
14  Michael de HamerScheldesport29.52M35   16.071  3:44
15  Kris de KreekScheldesport30.01JoA   15.991  3:45
16  Sjaak LuteijnOostburg30.10M55   15.912  3:46
17  Andre MelissantFlakkee30.20M40   15.824  3:48
18  Vincent BloemPallas'9330.28Mse   15.755  3:49
19  Chris de SmitRKHAV30.38M35   15.669  3:50
20  Peter BalkenendeAV'5630.45M45   15.610  3:51
21  Patrick de VosAV'5630.54JoA   15.534  3:52
22  Laurey van den BergeFlakkee31.01Vse   15.476  3:53
23  Peter SlitsWielingen31.08M45   15.418  3:54
24  Wilko de VosAV'5631.10M50   15.401  3:54
25  Johan KarelseAV'5631.22M40   15.303  3:55
26  Michel BuijckDynamica31.32M35   15.222  3:57
27  Dennis ThuyRKHAV31.51JoA   15.071  3:59
28  Wim DouwDiomedon31.56M45   15.031  4:00
29  Monique VerschuureAV'5632.26Vse   14.800  4:03
30  Marissa HopmansSpado33.03V35   14.523  4:08
31  Jan ZuidwegFlakkee33.10M55   14.472  4:09
32  Mark van EijkenFlakkee33.24Mse   14.371  4:11
33  Piet van MourikDelta Sport33.30M50   14.328  4:11
34  Petra SlootsSpark33.38V35   14.272  4:12
35  Alwin de ZeeuwScheldesport33.43M40   14.236  4:13
36  Archie StaalDelta Sport33.48M45   14.201  4:14
37  Ron van DijkFlakkee33.53M45   14.166  4:14
38  Arjan ReuijlFlakkee33.57M45   14.138  4:15
39  Remco KapteijnAV'5634.12M40   14.035  4:17
40  Rian van den BroekeDynamica34.15M50   14.015  4:17
41  Henk LousDynamica34.21M55   13.974  4:18
42  Paul van KempenFlakkee34.32M55   13.900  4:19
43  Frans BosDynamica34.53M65   13.760  4:22
44  Joop LasseurDelta Sport34.56M70   13.740  4:22
45  Albert PlatteeuwScheldesport35.02M45   13.701  4:23
46  Ron DellebekeDynamica35.20M55   13.585  4:25
47  Ronald MoerlandDelta Sport35.22M45   13.572  4:25
48  Wim de JongeAV'5635.32M65   13.508  4:27
49  Arie van DijkFlakkee35.57M55   13.352  4:30
50  Pieter VisserWielingen36.05M55   13.303  4:31
51  Nick PaulusseDynamica36.09M40   13.278  4:31
52  Martin KempeDelta Sport36.17M35   13.229  4:32
53  Erik OlreeBruinisse36.21M35   13.205  4:33
54  Hans GebuisFlakkee36.27M45   13.169  4:33
55  Aswin KoningsDynamica36.33M45   13.133  4:34
56  Martin LelieRKHAV36.40M45   13.091  4:35
57  Rinus van SteeAV'5636.48M45   13.043  4:36
58  Janita van der HaveFlakkee36.52V45   13.020  4:37
59  Sandra JoziasseDynamica36.59V35   12.979  4:37
60  Paola van GilstAV'5637.06V40   12.938  4:38
61  Arthur PouwelseMiddelburg37.18M50   12.869  4:40
62  Corina GrimGonz├ílez Running37.26V45   12.823  4:41
63  Co de FeijterDelta Sport37.29M50   12.806  4:41
64  Jan van EijkenFlakkee38.05M55   12.604  4:46
65  Ruud KarsbergenFlakkee38.08M45   12.587  4:46
66  Bauke de JongVet Ned38.16M65   12.544  4:47
67  John GuequierreDynamica38.44M60   12.392  4:51
68  Leon GoedegebuurFlakkee38.48M35   12.371  4:51
69  Anneke HarthoornKapelle-Biezelinge38.56V35   12.329  4:52
70  Jan van HassentFlakkee40.00M55   12.000  5:00
71  Jannie de VriesDynamica40.01V55   11.995  5:00
72  Piet BeijerDynamica40.22M65   11.891  5:03
73  Ineke TempelaarDynamica41.32V55   11.557  5:12
74  Adrie van BavelDelta Sport41.38M50   11.529  5:12
75  Elbert SimonseAagtekerke41.52Mse   11.465  5:14
76  Leen VroegindeweyFlakkee42.56M35   11.180  5:22
77  Martin van der HaveFlakkee43.09M45   11.124  5:24
78  Ellen KarsbergenOude-Tonge44.10Vse   10.868  5:31
79  Arthur StijnsOudelande44.31M65   10.782  5:34
80  Karin EshuisFlakkee44.45V35   10.726  5:36
81  Jacco van DamFlakkee44.47M35   10.718  5:36
82  Lena KleingeldVlissingen44.56V55   10.682  5:37
83  Regina VerhageDynamica45.18V50   10.596  5:40
84  Lenie van KlevenVlissingen47.35V60   10.088  5:57
85  Jeanet GrootenboerFlakkee48.09V45   9.969  6:01
86  Wendy DorstHerkingen48.16Vse   9.945  6:02
87  Marianne van OchtendHerkingen48.17V35   9.941  6:02
88  Anne KarsbergenOude-Tonge49.10Vse   9.763  6:09
89  Anke ReijngoudtHalsteren49.12V35   9.756  6:09
90  Theo VerwoertGroesbeek51.41M45   9.287  6:28
Mannen: 65 (72.22%) => M35=9 - M40=5 - M45=18 - M50=6 - M55=9 - M60=1 - M65=5 - M70=1 - Mse=11
Vrouwen: 21 (23.33%) => V35=7 - V40=1 - V45=3 - V50=1 - V55=3 - V60=1 - Vse=5
Jongens: 4 (4.44%) => JoA=4

Overzicht Top3, winnares en aantal deelnemers in eerdere jaren

JaarWinnaarTijd2eTijd 3eTijdWinnaresTijd#
2017Tim Pleijte26:42Job de Feijter27:34Ricardo StNicolaas28:27Monica Sanderse33:5762
2016Maikel Peeman26:22Job de Feijter26:32Erwin Harmes27:23Astrid Verhoeven28:3476
2015Martijn de Kok26:36Tommy Staal26:44Tim van den Broeke27:33Laurey van den Berge31:0190
2014Martijn de Kok28:02Job de Feijter28:57Huub van Noorden29:05Laurey van den Berge31:3548

2.55 km
PltsNaam
Tijdkm/umin/km
1  Robbert MeeuwseAV'568.30Mse   18.000  3:20
2  Wouter VerstraateDynamica8.38Mse   17.722  3:23
3  Jasper ZuidhofAV'568.45Mse   17.486  3:26
4  Sebastiaan HeikoopDelta Sport8.52M45   17.256  3:29
5  Joel AafjesAV'569.13Mse   16.600  3:37
6  Lars de JongsteDelta Sport9.42Mse   15.773  3:48
7  Aniek AperRotterdam Atletiek9.46Vse   15.666  3:50
8  Waeoby JonesScheldesport9.52MeB   15.507  3:52
9  Maaike de KreekScheldesport9.58MeB   15.351  3:55
10  Marijn van der WelleFlakkee10.00Mse   15.300  3:55
11  Rien de WildeAV'5610.03M50   15.224  3:56
12  Amber BoutensScheldesport10.14MeB   14.951  4:01
13  HenkJan TielemanFlakkee10.17Mse   14.878  4:02
14  Pieter-Jan de BaarAV'5610.21Mse   14.783  4:04
15  Judith LodderFlakkee10.27MeB   14.641  4:06
16  Amina van PuttenFlakkee10.53Vse   14.058  4:16
17  Saskia KroonRotterdam Atletiek10.56Vse   13.994  4:17
18  Arjen LuteijnWielingen10.59Mse   13.930  4:18
19  Janneke KluwenRotterdam Atletiek11.02Vse   13.867  4:20
20  Annemarie WaardDelta Sport11.04MeB   13.825  4:20
21  Mila VanderdussenRotterdam Atletiek11.20MeB   13.500  4:27
22  Janneke BerkhofRotterdam Atletiek11.28Vse   13.343  4:30
23  Co de FeijterDelta Sport11.30M50   13.304  4:31
24  Harold de MaatScheldesport11.40Mse   13.114  4:35
25  Fleur BerkhofRotterdam Atletiek11.44Vse   13.040  4:36
26  Caroline VeringaDynamica11.52V40   12.893  4:39
27  Leonie van KlinkenNieuwerkerk11.57Vse   12.803  4:41
28  Marian SteenblokAV'5612.01V40   12.732  4:43
29  Ronald RasenbergScheldesport12.13M45   12.524  4:47
30  Paulette de KrakerDynamica12.31Vse   12.224  4:55
31  Esther van SluijsAV'5612.42V40   12.047  4:59
32  Loes de WidtDelta Sport13.58Vse   10.955  5:29
33  Sterre FestSommelsdijk14.06Mse   10.851  5:32
34  George SchanckWielingen14.08Mse   10.825  5:33
35  Angelique HarinckDynamica14.10V45   10.800  5:33
36  Wendy TielemanFlakkee14.18Vse   10.699  5:36
Mannen: 16 (44.44%) => M45=2 - M50=2 - Mse=12
Vrouwen: 14 (38.89%) => V40=3 - V45=1 - Vse=10

Snelheid en tempo zijn berekend op de vermelde afstand. Bij een onjuiste afstand wijken deze uiteraard af!

Fouten melden via info@atletiekzeeland.nl Categorie fout? Mail dan geboortedatum. (geldt alleen voor Zeeuwen)

De server had 0.216 seconden nodig om deze lijst met 126 prestaties samen te stellen.

Terug naar boven

Vorige uitslagen
DatumWedstrijdPlaatsVereniging Hits
10-02-2018 24e Grevelingen crossBruinisseFlakkee0
11-02-2017 23e Grevelingen crossBruinisseFlakkee0
13-02-2016 22e Grevelingen crossBruinisseFlakkee1216
15-02-2014 Grevelingen crossBruinisseFlakkee2015
16-02-2013 19e Grevelingen crossBruinisseFlakkee1710

 
Laatste reacties:
Jan Roose: 7e Kapelse Bosloop/cross In Ni..
Jan Roose: 7e Kapelse Bosloop/cross In Ni..
Jan Roose: 7e Kapelse Bosloop/cross In Ni..
Recente Zeeuwse prestaties meer prestaties
17-02: NK indoor Senioren Apeldoorn (6)
1500 m Yunis Stitan (PR)4.05.01  Mse
800 m Yunis Stitan (PR)1.56.85  Mse
800 m Aniek Aper (PR 2.16.31)2.18.68  Vse
400 m Pelle Gelderblom (PR 51.26)52.16  Mse
60 m Gennaro Biswane (PR)7.05  Mse
60 m Mariska Bun (PR)7.80  Vse
11-02: 41e Groet uit Schoorl Run (8)
11-02: NK indoor A/B-junioren Apeldoorn (8)
04-02: Midwinter Marathon Apeldoorn (9)
27-01: Sri Chinmoy Races Amsterdam (1)
21-01: Halve Marathon Maassluis (2)
14-01: 46e Halve van Egmond (14)
Atletiek Zeeland © 2018